Location: Olda
(45.8833°N, 9.5500°E)
Time: 07:13:40
(UTC+00:00)

H-2A R/B - Pass Details

Date: 03 March 2021
Orbit: 732 x 837 km, 98.2° (Epoch: 10 April)

Event Time Altitude Azimuth Distance (km) Brightness Sun altitude
Rises 18:00:05 0° 166° (SSE) 3,364 5.2 -9.3°
Reaches altitude 10° 18:02:25 10° 167° (SSE) 2,440 4.5 -9.7°
Maximum altitude 18:07:52 85° 256° (WSW) 848 2.3 -10.6°
Drops below altitude 10° 18:13:21 10° 345° (NNW) 2,455 4.8 -11.6°
Sets 18:15:43 0° 347° (NNW) 3,387 5.6 -12.0°
